Location: *
(38.9800°N, 16.0500°E)
Time: 01:20:02
(UTC+00:00)

Cosmos 1356 - Pass Details

Date: 07 April 2020
Orbit: 444 x 447 km, 81.1° (Epoch: 24 May)

Event Time Altitude Azimuth Distance (km) Brightness Sun altitude
Rises 02:57:20 0° 350° (N) 2,451 7.3 -18.1°
Reaches altitude 10° 02:59:24 10° 350° (N) 1,574 6.3 -17.8°
Maximum altitude 03:02:50 88° 263° (W) 450 3.3 -17.2°
Drops below altitude 10° 03:06:15 10° 173° (S) 1,559 6.0 -16.6°
Enters shadow 03:08:08 - 173° (S) 2,355 6.9 -16.2°
